Terminal Aerodrome Forecast
Issued by NWS

Home | Current Version | Previous Version | Text Only | Print | Product List | Glossary On
Versions: 1 2 3 4 5 6 7 8 9 10 11 12 13 14 15 16 17
000
FTUS46 KLOX 252359
TAFWJF
TAF
KWJF 252359Z 2600/2624 23030G40KT 6SM BLDU SKC
     FM260300 23020G26KT P6SM SKC
     FM261100 24018G25KT P6SM SCT017
     FM261300 23020G30KT P6SM SKC
     FM261900 23025G35KT 6SM BLDU SKC=

USA.gov is the U.S. government's official web portal to all federal, state and local government web resources and services.